CHH425 RKSI-ZYTX

Flight info

Callsign CHH425
Flight time 1h 20m
Altitude 36000
Route NOPIK Y697 AGAVO/K0856S1100 G597 DONVO A326 SANKO/K0852S1070 W107 CHI A588 TOSID TOS73A
Aircraft B738/M-SDE2E3FGHIRWXY/LB1

Departure

Time 2026-04-25 01:17
Airport Incheon International Airport (RKSI)

Arrival

Time 2026-04-25 02:38
Airport Shenyang Taoxian International Airport (ZYTX)
Time Latitude Longitude Altitude Speed Heading
2026-04-25 00:33 37.46625 126.43557 31 ft 0 kts 324°
2026-04-25 01:04 37.46615 126.43565 30 ft 3 kts 325°
2026-04-25 01:05 37.46598 126.43580 30 ft 3 kts 324°
2026-04-25 01:05 37.46583 126.43595 29 ft 3 kts 315°
2026-04-25 01:05 37.46571 126.43614 30 ft 3 kts 282°
2026-04-25 01:05 37.46571 126.43627 29 ft 1 kts 235°
2026-04-25 01:06 37.46572 126.43628 29 ft 1 kts 234°
2026-04-25 01:08 37.46562 126.43611 29 ft 6 kts 236°
2026-04-25 01:08 37.46532 126.43558 31 ft 9 kts 234°
2026-04-25 01:08 37.46487 126.43485 31 ft 12 kts 223°
2026-04-25 01:09 37.46415 126.43486 30 ft 12 kts 131°
2026-04-25 01:09 37.46353 126.43550 30 ft 11 kts 144°
2026-04-25 01:09 37.46290 126.43608 31 ft 11 kts 144°
2026-04-25 01:09 37.46226 126.43662 31 ft 11 kts 154°
2026-04-25 01:10 37.46164 126.43630 31 ft 11 kts 235°
2026-04-25 01:10 37.46123 126.43555 31 ft 10 kts 235°
2026-04-25 01:10 37.46082 126.43483 31 ft 10 kts 233°
2026-04-25 01:10 37.46042 126.43414 31 ft 10 kts 235°
2026-04-25 01:11 37.46004 126.43345 31 ft 9 kts 235°
2026-04-25 01:11 37.45967 126.43278 31 ft 9 kts 234°
2026-04-25 01:11 37.45930 126.43213 31 ft 9 kts 234°
2026-04-25 01:11 37.45894 126.43148 31 ft 9 kts 232°
2026-04-25 01:12 37.45841 126.43110 32 ft 10 kts 175°
2026-04-25 01:12 37.45777 126.43159 32 ft 12 kts 146°
2026-04-25 01:12 37.45697 126.43230 32 ft 16 kts 144°
2026-04-25 01:12 37.45599 126.43317 32 ft 19 kts 144°
2026-04-25 01:13 37.45486 126.43418 31 ft 21 kts 144°
2026-04-25 01:13 37.45361 126.43531 30 ft 23 kts 144°
2026-04-25 01:13 37.45223 126.43652 31 ft 25 kts 145°
2026-04-25 01:13 37.45080 126.43780 31 ft 25 kts 145°
2026-04-25 01:14 37.44934 126.43910 30 ft 26 kts 144°
2026-04-25 01:14 37.44780 126.44046 32 ft 28 kts 144°
2026-04-25 01:14 37.44620 126.44189 31 ft 26 kts 143°
2026-04-25 01:14 37.44538 126.44253 30 ft 11 kts 169°
2026-04-25 01:15 37.44480 126.44201 30 ft 11 kts 236°
2026-04-25 01:15 37.44450 126.44110 30 ft 11 kts 267°
2026-04-25 01:15 37.44484 126.44044 29 ft 0 kts 325°
2026-04-25 01:16 37.44525 126.44007 30 ft 34 kts 324°
2026-04-25 01:17 37.44964 126.43618 30 ft 118 kts 323°
2026-04-25 01:17 37.45498 126.43140 34 ft 165 kts 325°
2026-04-25 01:17 37.47027 126.41828 421 ft 216 kts 326°
2026-04-25 01:17 37.48290 126.40713 1229 ft 225 kts 320°
2026-04-25 01:18 37.49363 126.39327 2350 ft 218 kts 304°
2026-04-25 01:18 37.50089 126.37659 3249 ft 223 kts 289°
2026-04-25 01:18 37.50468 126.35692 3840 ft 240 kts 275°
2026-04-25 01:18 37.50550 126.33516 4405 ft 255 kts 270°
2026-04-25 01:19 37.50568 126.31257 5189 ft 261 kts 270°
2026-04-25 01:19 37.50592 126.28954 6020 ft 265 kts 270°
2026-04-25 01:19 37.50632 126.26648 6807 ft 269 kts 271°
2026-04-25 01:19 37.50682 126.24276 7601 ft 273 kts 271°
2026-04-25 01:20 37.50737 126.21872 8389 ft 276 kts 271°
2026-04-25 01:20 37.50772 126.19433 9172 ft 281 kts 265°
2026-04-25 01:20 37.50236 126.17068 9924 ft 284 kts 242°
2026-04-25 01:20 37.49185 126.14927 10528 ft 295 kts 236°
2026-04-25 01:21 37.47987 126.12690 10682 ft 320 kts 236°
2026-04-25 01:21 37.46687 126.10287 10871 ft 343 kts 236°
2026-04-25 01:21 37.45312 126.07715 11038 ft 365 kts 236°
2026-04-25 01:21 37.43876 126.04996 11337 ft 379 kts 236°
2026-04-25 01:22 37.42411 126.02208 11932 ft 384 kts 236°
2026-04-25 01:22 37.41105 125.99266 12555 ft 389 kts 250°
2026-04-25 01:22 37.40606 125.96069 13211 ft 392 kts 267°
2026-04-25 01:22 37.40571 125.92635 13956 ft 394 kts 269°
2026-04-25 01:23 37.40567 125.89207 14479 ft 399 kts 269°
2026-04-25 01:23 37.40559 125.85656 15085 ft 402 kts 269°
2026-04-25 01:23 37.40537 125.82180 15702 ft 404 kts 269°
2026-04-25 01:23 37.40504 125.78637 16300 ft 406 kts 269°
2026-04-25 01:24 37.40462 125.75073 16877 ft 409 kts 268°
2026-04-25 01:24 37.40417 125.71483 17443 ft 412 kts 268°
2026-04-25 01:24 37.40370 125.67868 18014 ft 415 kts 268°
2026-04-25 01:24 37.40321 125.64230 18558 ft 417 kts 268°
2026-04-25 01:25 37.40271 125.60574 19038 ft 420 kts 268°
2026-04-25 01:25 37.40219 125.56890 19495 ft 423 kts 268°
2026-04-25 01:25 37.40166 125.53178 19945 ft 426 kts 268°
2026-04-25 01:25 37.40111 125.49447 20398 ft 428 kts 268°
2026-04-25 01:26 37.40056 125.45692 20848 ft 430 kts 268°
2026-04-25 01:26 37.39999 125.41920 21289 ft 433 kts 268°
2026-04-25 01:26 37.39940 125.38123 21707 ft 436 kts 268°
2026-04-25 01:26 37.39880 125.34302 22109 ft 438 kts 268°
2026-04-25 01:27 37.39818 125.30457 22516 ft 441 kts 268°
2026-04-25 01:27 37.39755 125.26595 22920 ft 443 kts 268°
2026-04-25 01:27 37.39690 125.22712 23310 ft 446 kts 268°
2026-04-25 01:28 37.39582 125.16206 23905 ft 450 kts 268°
2026-04-25 01:28 37.39516 125.12266 24221 ft 452 kts 268°
2026-04-25 01:28 37.39427 125.07016 24630 ft 455 kts 268°
2026-04-25 01:28 37.39358 125.03038 24921 ft 457 kts 268°
2026-04-25 01:29 37.39287 124.99036 25219 ft 459 kts 268°
2026-04-25 01:29 37.39214 124.95020 25502 ft 461 kts 268°
2026-04-25 01:29 37.39164 124.92295 25687 ft 462 kts 268°
2026-04-25 01:29 37.39089 124.88245 25959 ft 464 kts 268°
2026-04-25 01:30 37.39012 124.84233 26234 ft 466 kts 267°
2026-04-25 01:30 37.38932 124.80157 26506 ft 468 kts 267°
2026-04-25 01:30 37.38849 124.76063 26792 ft 469 kts 267°
2026-04-25 01:30 37.38764 124.71969 27155 ft 468 kts 267°
2026-04-25 01:31 37.38678 124.67890 27577 ft 466 kts 267°
2026-04-25 01:31 37.38592 124.63825 27999 ft 464 kts 267°
2026-04-25 01:31 37.38504 124.59768 28370 ft 464 kts 267°
2026-04-25 01:31 37.38416 124.55717 28717 ft 464 kts 267°
2026-04-25 01:32 37.38326 124.51668 29100 ft 463 kts 267°
2026-04-25 01:32 37.38224 124.47630 29512 ft 461 kts 265°
2026-04-25 01:32 37.37763 124.43653 29852 ft 460 kts 255°
2026-04-25 01:32 37.36807 124.39836 30257 ft 458 kts 248°
2026-04-25 01:33 37.35431 124.36242 30598 ft 456 kts 238°
2026-04-25 01:33 37.33734 124.32886 30963 ft 453 kts 237°
2026-04-25 01:33 37.32011 124.29585 31321 ft 451 kts 236°
2026-04-25 01:33 37.30297 124.26286 31650 ft 450 kts 237°
2026-04-25 01:34 37.28606 124.22992 31991 ft 448 kts 237°
2026-04-25 01:34 37.26933 124.19695 32322 ft 447 kts 237°
2026-04-25 01:34 37.25270 124.16405 32668 ft 445 kts 237°
2026-04-25 01:34 37.23614 124.13133 33011 ft 443 kts 237°
2026-04-25 01:35 37.21942 124.09899 33342 ft 441 kts 236°
2026-04-25 01:35 37.20320 124.06697 33622 ft 441 kts 243°
2026-04-25 01:35 37.19334 124.02998 33756 ft 445 kts 261°
2026-04-25 01:35 37.19278 123.99140 34133 ft 443 kts 276°
2026-04-25 01:36 37.19965 123.95392 34522 ft 442 kts 288°
2026-04-25 01:36 37.21384 123.91958 34672 ft 448 kts 303°
2026-04-25 01:36 37.23209 123.88860 34899 ft 448 kts 305°
2026-04-25 01:36 37.25120 123.85772 35079 ft 448 kts 305°
2026-04-25 01:37 37.27046 123.82691 35247 ft 449 kts 305°
2026-04-25 01:37 37.28963 123.79601 35472 ft 448 kts 305°
2026-04-25 01:37 37.30860 123.76508 35743 ft 446 kts 304°
2026-04-25 01:37 37.32735 123.73418 35992 ft 444 kts 304°
2026-04-25 01:38 37.34603 123.70319 36165 ft 444 kts 304°
2026-04-25 01:38 37.36470 123.67207 36144 ft 448 kts 304°
2026-04-25 01:38 37.40207 123.60965 36154 ft 446 kts 304°
2026-04-25 01:39 37.43924 123.54749 36158 ft 443 kts 304°
2026-04-25 01:39 37.47619 123.48562 36161 ft 441 kts 304°
2026-04-25 01:40 37.51296 123.42392 36167 ft 440 kts 304°
2026-04-25 01:40 37.54964 123.36227 36164 ft 439 kts 304°
2026-04-25 01:41 37.58910 123.30322 36162 ft 442 kts 311°
2026-04-25 01:41 37.63260 123.24827 36144 ft 444 kts 312°
2026-04-25 01:42 37.67639 123.19309 36141 ft 446 kts 312°
2026-04-25 01:42 37.71982 123.13775 36139 ft 447 kts 312°
2026-04-25 01:43 37.76351 123.08171 36138 ft 449 kts 312°
2026-04-25 01:43 37.80728 123.02541 36138 ft 449 kts 312°
2026-04-25 01:44 37.85107 122.96900 36149 ft 449 kts 312°
2026-04-25 01:44 37.89484 122.91253 36125 ft 449 kts 312°
2026-04-25 01:45 37.93854 122.85604 36138 ft 448 kts 312°
2026-04-25 01:45 37.98213 122.79960 36130 ft 448 kts 312°
2026-04-25 01:46 38.02568 122.74309 36125 ft 447 kts 312°
2026-04-25 01:46 38.06882 122.68702 36126 ft 447 kts 312°
2026-04-25 01:47 38.11251 122.63024 36119 ft 446 kts 312°
2026-04-25 01:47 38.15578 122.57460 36123 ft 445 kts 312°
2026-04-25 01:48 38.19928 122.51859 36120 ft 445 kts 312°
2026-04-25 01:48 38.24808 122.47072 36089 ft 451 kts 336°
2026-04-25 01:49 38.27831 122.46024 36124 ft 454 kts 351°
2026-04-25 01:49 38.31002 122.46053 36160 ft 457 kts
2026-04-25 01:49 38.37316 122.47098 36125 ft 459 kts
2026-04-25 01:50 38.43644 122.48219 36113 ft 459 kts
2026-04-25 01:50 38.49987 122.49281 36104 ft 460 kts
2026-04-25 01:51 38.56336 122.50304 36106 ft 460 kts
2026-04-25 01:51 38.62677 122.51319 36107 ft 458 kts
2026-04-25 01:52 38.68991 122.52332 36097 ft 456 kts
2026-04-25 01:52 38.75277 122.53345 36106 ft 454 kts
2026-04-25 01:53 38.81545 122.54357 36094 ft 453 kts
2026-04-25 01:53 38.87754 122.55361 36096 ft 453 kts
2026-04-25 01:54 38.94027 122.56376 36103 ft 455 kts
2026-04-25 01:54 39.00323 122.57398 36095 ft 456 kts
2026-04-25 01:55 39.06596 122.58419 36079 ft 452 kts
2026-04-25 01:55 39.12826 122.59433 36098 ft 451 kts
2026-04-25 01:56 39.19062 122.60451 36084 ft 452 kts
2026-04-25 01:56 39.25289 122.61621 36052 ft 453 kts 12°
2026-04-25 01:57 39.31131 122.64634 36061 ft 455 kts 27°
2026-04-25 01:57 39.33889 122.66615 36135 ft 453 kts 28°
2026-04-25 01:58 39.39378 122.70648 36100 ft 454 kts 28°
2026-04-25 01:58 39.44879 122.74648 36095 ft 453 kts 28°
2026-04-25 01:59 39.50387 122.78605 36095 ft 453 kts 27°
2026-04-25 01:59 39.55897 122.82554 36096 ft 452 kts 27°
2026-04-25 02:00 39.61401 122.86505 36080 ft 452 kts 28°
2026-04-25 02:00 39.66862 122.90435 36073 ft 452 kts 28°
2026-04-25 02:01 39.72361 122.94401 36077 ft 452 kts 28°
2026-04-25 02:01 39.77859 122.98372 36088 ft 452 kts 28°
2026-04-25 02:02 39.83352 123.02348 36077 ft 452 kts 28°
2026-04-25 02:02 39.88844 123.06330 36080 ft 452 kts 28°
2026-04-25 02:03 39.94331 123.10317 36087 ft 452 kts 28°
2026-04-25 02:03 39.99817 123.14310 36079 ft 452 kts 28°
2026-04-25 02:04 40.05308 123.18312 36078 ft 451 kts 27°
2026-04-25 02:04 40.10807 123.22272 36061 ft 452 kts 27°
2026-04-25 02:05 40.16312 123.26219 36075 ft 452 kts 27°
2026-04-25 02:05 40.21785 123.30157 36051 ft 452 kts 27°
2026-04-25 02:06 40.27284 123.34128 36056 ft 452 kts 27°
2026-04-25 02:06 40.32792 123.38114 36068 ft 452 kts 27°
2026-04-25 02:07 40.38293 123.42102 36066 ft 452 kts 27°
2026-04-25 02:07 40.43793 123.46097 36061 ft 452 kts 27°
2026-04-25 02:08 40.49299 123.50105 36059 ft 452 kts 27°
2026-04-25 02:08 40.54800 123.54115 36060 ft 453 kts 27°
2026-04-25 02:09 40.60222 123.58359 36030 ft 455 kts 34°
2026-04-25 02:09 40.65190 123.63535 36041 ft 457 kts 37°
2026-04-25 02:10 40.70107 123.68845 36054 ft 457 kts 37°
2026-04-25 02:10 40.75048 123.74037 36044 ft 458 kts 36°
2026-04-25 02:11 40.80056 123.79236 36043 ft 459 kts 36°
2026-04-25 02:11 40.85073 123.84453 36047 ft 460 kts 36°
2026-04-25 02:12 40.90097 123.89692 36053 ft 460 kts 36°
2026-04-25 02:12 40.95490 123.94151 36081 ft 455 kts 25°
2026-04-25 02:12 40.98328 123.96084 35502 ft 463 kts 24°
2026-04-25 02:13 41.01186 123.98021 34999 ft 458 kts 25°
2026-04-25 02:13 41.04007 123.99977 34288 ft 458 kts 25°
2026-04-25 02:13 41.06804 124.01964 33658 ft 455 kts 26°
2026-04-25 02:13 41.09610 124.03983 32571 ft 462 kts 26°
2026-04-25 02:14 41.12435 124.06026 31884 ft 460 kts 26°
2026-04-25 02:14 41.15229 124.08048 31257 ft 457 kts 26°
2026-04-25 02:14 41.17982 124.10043 30775 ft 450 kts 26°
2026-04-25 02:14 41.20752 124.12049 29968 ft 453 kts 26°
2026-04-25 02:15 41.23522 124.14055 29023 ft 455 kts 26°
2026-04-25 02:15 41.26270 124.16048 28196 ft 456 kts 26°
2026-04-25 02:15 41.29060 124.18075 27280 ft 458 kts 25°
2026-04-25 02:15 41.31865 124.20108 26320 ft 461 kts 26°
2026-04-25 02:16 41.34689 124.22155 25484 ft 462 kts 25°
2026-04-25 02:16 41.37497 124.24195 24852 ft 458 kts 25°
2026-04-25 02:16 41.40283 124.26223 24165 ft 455 kts 25°
2026-04-25 02:16 41.43058 124.28245 23462 ft 454 kts 25°
2026-04-25 02:17 41.45817 124.30258 22717 ft 451 kts 25°
2026-04-25 02:17 41.48543 124.32299 22025 ft 448 kts 26°
2026-04-25 02:17 41.51221 124.34384 21350 ft 444 kts 27°
2026-04-25 02:17 41.53874 124.36466 20698 ft 440 kts 26°
2026-04-25 02:18 41.56509 124.38523 20053 ft 437 kts 26°
2026-04-25 02:18 41.59125 124.40548 19464 ft 432 kts 26°
2026-04-25 02:18 41.61719 124.42525 18915 ft 427 kts 25°
2026-04-25 02:18 41.64296 124.44475 18296 ft 425 kts 25°
2026-04-25 02:19 41.66865 124.46419 17564 ft 423 kts 25°
2026-04-25 02:19 41.69417 124.48357 16900 ft 420 kts 25°
2026-04-25 02:19 41.71951 124.50287 16267 ft 417 kts 25°
2026-04-25 02:19 41.74460 124.52201 15660 ft 414 kts 25°
2026-04-25 02:20 41.76959 124.54095 15031 ft 410 kts 22°
2026-04-25 02:20 41.79574 124.55262 14426 ft 396 kts
2026-04-25 02:20 41.82311 124.55301 13856 ft 383 kts 347°
2026-04-25 02:20 41.84815 124.54402 13224 ft 374 kts 336°
2026-04-25 02:21 41.87243 124.53202 12623 ft 370 kts 333°
2026-04-25 02:21 41.89392 124.51434 12056 ft 358 kts 313°
2026-04-25 02:21 41.90905 124.48866 11531 ft 348 kts 296°
2026-04-25 02:21 41.91740 124.45867 11188 ft 338 kts 280°
2026-04-25 02:22 41.91966 124.42788 11035 ft 327 kts 268°
2026-04-25 02:22 41.91616 124.39815 10899 ft 320 kts 253°
2026-04-25 02:22 41.90828 124.37037 10780 ft 318 kts 248°
2026-04-25 02:22 41.89953 124.34353 10636 ft 309 kts 247°
2026-04-25 02:23 41.89089 124.31770 10516 ft 298 kts 247°
2026-04-25 02:23 41.88259 124.29276 10401 ft 288 kts 248°
2026-04-25 02:23 41.87728 124.27663 10315 ft 282 kts 248°
2026-04-25 02:23 41.86950 124.25283 10197 ft 274 kts 248°
2026-04-25 02:24 41.86201 124.22973 10089 ft 266 kts 248°
2026-04-25 02:24 41.85475 124.20727 9946 ft 259 kts 248°
2026-04-25 02:24 41.84526 124.17784 9559 ft 259 kts 248°
2026-04-25 02:24 41.84043 124.16286 9384 ft 258 kts 248°
2026-04-25 02:25 41.83330 124.14083 9109 ft 257 kts 248°
2026-04-25 02:25 41.82622 124.11896 8815 ft 255 kts 248°
2026-04-25 02:25 41.82014 124.09669 8516 ft 255 kts 255°
2026-04-25 02:25 41.81588 124.07382 8382 ft 248 kts 257°
2026-04-25 02:26 41.81210 124.05201 8303 ft 233 kts 257°
2026-04-25 02:26 41.80857 124.03178 8218 ft 218 kts 256°
2026-04-25 02:26 41.80518 124.01269 8118 ft 203 kts 256°
2026-04-25 02:26 41.80192 123.99467 7886 ft 195 kts 256°
2026-04-25 02:27 41.79876 123.97736 7659 ft 188 kts 256°
2026-04-25 02:27 41.79567 123.96061 7417 ft 183 kts 256°
2026-04-25 02:27 41.79267 123.94439 7189 ft 177 kts 256°
2026-04-25 02:27 41.78977 123.92872 6982 ft 171 kts 255°
2026-04-25 02:28 41.78686 123.91317 6755 ft 173 kts 255°
2026-04-25 02:28 41.78392 123.89743 6532 ft 175 kts 255°
2026-04-25 02:28 41.78413 123.88137 6294 ft 174 kts 285°
2026-04-25 02:28 41.79066 123.86771 6077 ft 180 kts 311°
2026-04-25 02:29 41.79999 123.85695 6031 ft 178 kts 311°
2026-04-25 02:29 41.80946 123.84581 5809 ft 185 kts 311°
2026-04-25 02:29 41.81921 123.83433 5560 ft 188 kts 311°
2026-04-25 02:29 41.82908 123.82283 5303 ft 187 kts 311°
2026-04-25 02:30 41.83775 123.81039 5014 ft 177 kts 286°
2026-04-25 02:30 41.83761 123.79557 4768 ft 156 kts 239°
2026-04-25 02:30 41.83170 123.78379 4527 ft 150 kts 238°
2026-04-25 02:30 41.82606 123.77211 4282 ft 150 kts 238°
2026-04-25 02:31 41.82032 123.76035 4063 ft 155 kts 235°
2026-04-25 02:31 41.81389 123.74856 3980 ft 158 kts 232°
2026-04-25 02:31 41.80685 123.73685 3942 ft 159 kts 231°
2026-04-25 02:31 41.79982 123.72573 3927 ft 155 kts 230°
2026-04-25 02:32 41.79275 123.71482 3955 ft 159 kts 230°
2026-04-25 02:32 41.78550 123.70378 3958 ft 156 kts 230°
2026-04-25 02:32 41.77833 123.69288 3936 ft 158 kts 229°
2026-04-25 02:32 41.77091 123.68165 3775 ft 160 kts 229°
2026-04-25 02:33 41.76352 123.67049 3532 ft 155 kts 229°
2026-04-25 02:33 41.75645 123.65980 3337 ft 152 kts 229°
2026-04-25 02:33 41.74953 123.64929 3154 ft 147 kts 228°
2026-04-25 02:33 41.74292 123.63927 2981 ft 139 kts 227°
2026-04-25 02:34 41.73641 123.62945 2768 ft 138 kts 226°
2026-04-25 02:34 41.73025 123.62001 2586 ft 132 kts 226°
2026-04-25 02:34 41.72406 123.61074 2399 ft 133 kts 225°
2026-04-25 02:34 41.71788 123.60146 2222 ft 137 kts 226°
2026-04-25 02:35 41.71164 123.59195 2075 ft 136 kts 227°
2026-04-25 02:35 41.70511 123.58206 1862 ft 142 kts 226°
2026-04-25 02:35 41.69861 123.57223 1678 ft 141 kts 225°
2026-04-25 02:35 41.69228 123.56263 1513 ft 133 kts 226°
2026-04-25 02:36 41.68612 123.55332 1317 ft 131 kts 226°
2026-04-25 02:36 41.68010 123.54419 1121 ft 130 kts 226°
2026-04-25 02:36 41.67415 123.53516 946 ft 129 kts 226°
2026-04-25 02:36 41.66790 123.52566 837 ft 146 kts 226°
2026-04-25 02:37 41.66121 123.51559 651 ft 145 kts 227°
2026-04-25 02:37 41.65468 123.50559 407 ft 141 kts 226°
2026-04-25 02:37 41.64820 123.49585 222 ft 138 kts 227°
2026-04-25 02:37 41.64244 123.48713 214 ft 107 kts 228°
2026-04-25 02:38 41.63847 123.48118 214 ft 64 kts 229°
2026-04-25 02:38 41.63636 123.47800 203 ft 36 kts 227°
2026-04-25 02:38 41.63540 123.47653 206 ft 20 kts 228°
2026-04-25 02:38 41.63441 123.47528 207 ft 19 kts 216°
2026-04-25 02:39 41.63321 123.47458 205 ft 19 kts 199°
2026-04-25 02:39 41.63244 123.47436 211 ft 3 kts 176°
2026-04-25 02:39 41.63225 123.47449 210 ft 3 kts 134°
2026-04-25 02:39 41.63215 123.47475 204 ft 3 kts 104°
2026-04-25 02:40 41.63220 123.47510 205 ft 5 kts 67°
2026-04-25 02:40 41.63253 123.47563 205 ft 10 kts 49°
2026-04-25 02:40 41.63310 123.47651 217 ft 15 kts 49°
2026-04-25 02:40 41.63383 123.47764 206 ft 8 kts 58°
2026-04-25 02:41 41.63377 123.47835 209 ft 9 kts 134°
2026-04-25 02:41 41.63331 123.47891 209 ft 9 kts 138°
2026-04-25 02:41 41.63287 123.47945 208 ft 9 kts 137°
2026-04-25 02:41 41.63243 123.47997 208 ft 8 kts 140°
2026-04-25 02:42 41.63200 123.48048 216 ft 8 kts 137°
2026-04-25 02:42 41.63160 123.48099 214 ft 8 kts 136°
2026-04-25 02:42 41.63117 123.48150 206 ft 8 kts 136°
2026-04-25 02:42 41.63101 123.48222 206 ft 8 kts 93°
2026-04-25 02:43 41.63095 123.48302 212 ft 9 kts 110°
2026-04-25 02:43 41.63054 123.48362 206 ft 9 kts 140°
2026-04-25 02:43 41.63008 123.48415 206 ft 9 kts 138°
2026-04-25 02:43 41.62963 123.48468 211 ft 9 kts 139°
2026-04-25 02:44 41.62944 123.48538 209 ft 9 kts 59°
2026-04-25 02:44 41.62972 123.48583 206 ft 0 kts 49°